Lid_Strength_Index
7 7 9 8 7 8 8 10 10 9 8 8 9 8 8 7 6 6 6 5 5 4 3 2 2 1 1 1 1 1 0 -0 0 0 1 1 1 0 -0 -1 -1 -1 -1 -1
8 9 6 6 7 8 9 10 10 9 8 8 9 9 7 7 7 6 6 6 5 4 4 3 2 2 1 1 1 1 0 0 0 0 0 0 0 0 -0 -1 -1 -1 -1 -1
9 7 6 7 8 9 9 9 9 10 9 9 10 10 9 8 6 6 5 5 4 4 4 3 3 2 2 1 1 1 0 0 -0 -0 -0 0 -0 -0 0 0 -0 -1 -1 -1
9 8 8 7 8 8 10 7 8 10 10 13 9 14 10 9 9 7 6 5 5 4 4 3 3 2 2 1 1 0 0 0 0 -0 0 0 1 2 1 1 -0 -0 -1 -1
8 7 8 8 8 7 9 7 9 9 10 11 12 13 11 9 10 8 7 6 5 4 4 3 3 2 2 1 1 1 0 0 -0 0 0 1 1 1 0 0 0 -0 -1 -1
6 6 6 6 6 6 7 8 9 9 11 13 11 12 11 11 9 8 6 6 5 4 3 3 2 2 2 1 1 1 1 1 0 0 0 0 1 1 1 1 1 1 0 -0
8 7 8 7 8 7 8 9 11 12 14 13 11 13 10 8 7 6 6 5 5 4 4 3 3 3 2 2 1 1 1 1 1 1 0 1 0 0 1 1 1 1 1 0
9 10 8 7 7 9 8 9 11 14 13 12 11 13 9 7 6 5 5 4 4 4 4 3 3 3 2 2 2 1 1 1 1 1 1 0 0 1 0 0 0 1 1 0
10 9 7 7 6 8 9 10 8 10 11 13 11 10 7 6 6 6 5 5 5 4 4 3 3 2 2 2 2 1 1 1 1 1 1 0 0 0 0 0 -0 0 -0 -0
7 10 8 8 7 9 8 8 11 10 14 14 12 12 10 8 6 5 6 6 5 4 4 3 3 3 2 2 1 1 1 1 1 1 1 1 0 0 -0 -0 0 -0 -0 -0
8 8 9 9 8 8 9 9 11 10 10 12 12 10 6 7 6 5 5 5 5 4 4 3 3 2 2 2 1 1 1 1 1 1 1 1 0 0 0 0 0 -0 -0 -0
9 9 10 9 9 8 6 9 9 12 12 11 11 10 5 5 5 5 5 4 4 4 3 3 3 2 2 2 2 2 1 1 1 1 1 1 0 0 1 0 0 -0 -0 -1
9 10 11 10 9 9 8 8 9 10 11 11 12 10 6 6 5 4 5 4 4 4 4 3 3 3 3 2 2 2 2 1 1 1 1 1 1 1 1 0 0 -0 -0 -0
5 11 10 11 9 8 9 8 9 10 11 10 10 9 6 5 5 5 4 4 4 4 4 3 3 3 3 2 2 2 2 1 1 1 1 1 1 1 1 0 0 0 -0 -0
7 9 9 9 9 8 8 9 10 10 8 10 8 9 7 5 5 4 5 4 4 4 4 4 4 3 3 3 2 2 2 1 1 1 1 1 1 0 0 0 0 -0 -0 -0
7 10 9 10 8 8 10 9 9 10 9 9 9 8 6 5 5 6 5 4 5 5 4 4 3 3 3 3 3 2 2 2 1 2 2 1 1 1 1 1 0 0 0 0
9 9 10 11 9 9 11 8 9 9 8 7 9 6 5 5 5 5 4 4 4 4 4 4 4 3 3 3 2 3 2 1 2 2 1 1 1 1 1 1 1 1 1 0
9 9 9 11 10 14 8 6 7 8 7 7 7 6 5 5 5 5 4 4 4 3 3 3 3 3 2 2 2 2 2 2 2 2 2 1 1 1 1 1 1 1 1 1
9 9 10 12 12 10 8 8 9 9 9 8 8 7 6 5 5 4 3 3 3 3 3 3 2 2 2 2 2 2 2 2 2 2 2 1 1 1 1 1 1 1 1 1
8 9 9 12 13 14 8 7 6 7 11 7 7 8 7 6 7 5 4 3 3 2 2 2 2 2 2 2 2 2 2 2 2 2 2 1 1 1 1 1 1 1 1 1
11 11 12 12 12 10 8 7 6 11 11 7 7 7 7 8 6 4 3 3 3 2 3 2 2 2 2 2 2 3 2 3 2 1 1 1 1 1 1 1 1 1 1 1
9 11 12 11 13 13 7 7 10 9 7 7 6 6 7 6 5 4 4 4 4 3 3 2 3 2 2 2 2 3 3 2 1 1 1 1 1 1 1 1 1 1 1 1
11 8 9 10 10 8 6 7 6 5 6 6 6 5 5 6 5 4 4 4 4 3 3 2 2 2 2 2 2 3 2 1 2 2 2 1 1 1 1 1 1 2 1 2
8 7 10 9 8 7 6 6 5 5 6 5 5 5 5 6 5 4 4 4 4 3 3 2 2 3 3 2 2 1 1 1 2 2 2 2 2 2 1 1 1 1 2 2
7 7 10 9 8 6 6 5 5 5 5 5 4 4 5 5 5 4 4 4 4 3 3 3 3 3 2 2 2 1 1 1 2 2 2 2 2 2 2 1 1 2 1 2
7 8 10 10 7 7 6 5 4 5 5 4 5 5 4 4 5 4 4 4 4 4 3 3 3 3 3 2 2 1 1 1 2 2 2 2 2 2 2 2 2 11 10 11